Location: Arran
(51.9410°N, 101.7372°W)
Time: 11:46:23
(UTC+00:00)

N. Korean satellite - Visible Passes

Search period start: 18 January 2022 00:00
Search period end: 28 January 2022 00:00
Orbit: 446 x 492 km, 97.3° (Epoch: 17 January)

Date Brightness Start Highest point End Pass type
(mag) Time Alt. Az. Time Alt. Az. Time Alt. Az.
18 Jan 9.2 11:16:37 10° NE 11:18:35 19° ENE 11:18:35 19° ENE visible
18 Jan 7.0 12:49:19 10° N 12:52:39 38° WNW 12:52:39 38° WNW visible
19 Jan 10.0 10:49:13 10° ENE 10:49:31 10° ENE 10:49:31 10° ENE visible
19 Jan 6.4 12:20:03 10° NNE 12:23:35 79° NW 12:23:35 79° NW visible
19 Jan 8.6 13:55:46 10° NW 13:56:11 10° WNW 13:56:37 10° WNW visible
20 Jan 7.5 11:51:01 10° NNE 11:54:29 47° E 11:54:29 47° E visible
20 Jan 8.0 13:24:51 10° NNW 13:27:23 18° WNW 13:28:33 16° W visible
21 Jan 9.6 00:04:09 10° SW 00:06:38 18° W 00:09:11 10° NW visible
21 Jan 8.9 11:22:16 10° NE 11:25:15 24° E 11:25:24 23° E visible
21 Jan 7.2 12:55:10 10° N 12:58:28 33° WNW 12:59:28 28° W visible
22 Jan 9.8 10:54:18 10° ENE 10:55:50 12° E 10:56:18 12° E visible
22 Jan 6.4 12:25:48 10° N 12:29:25 69° WNW 12:30:22 45° SW visible
23 Jan 7.2 11:56:38 10° NNE 12:00:15 55° E 12:01:16 39° SSE visible
23 Jan 8.2 13:30:41 10° NNW 13:33:01 16° WNW 13:35:19 10° W visible
24 Jan 9.7 00:10:03 10° SW 00:12:20 16° W 00:14:39 10° NW visible
24 Jan 8.7 11:27:46 10° NE 11:30:55 27° E 11:32:09 22° SE visible
24 Jan 7.4 13:00:51 10° N 13:04:04 29° WNW 13:06:12 17° WSW visible
25 Jan 9.7 10:59:29 10° NE 11:01:28 14° E 11:03:02 11° ESE visible
25 Jan 6.5 12:31:22 10° N 12:34:58 59° WNW 12:37:07 22° SW visible
26 Jan 6.9 12:02:07 10° NNE 12:05:45 64° E 12:08:00 22° S visible
26 Jan 8.3 13:36:23 10° NNW 13:38:27 15° WNW 13:40:32 10° W visible
27 Jan 9.8 00:15:49 10° SW 00:17:51 15° W 00:19:54 10° NW visible
27 Jan 8.4 11:33:07 10° NNE 11:36:24 30° E 11:38:53 15° SSE visible
27 Jan 7.6 13:06:23 10° N 13:09:27 26° WNW 13:12:32 10° WSW visible
